Location: Ravensburg
(47.7866°N, 9.6124°E)
Time: 03:23:54
(UTC+02:00)

CAS-6 - Pass Details

Date: 14 March 2026
Orbit: 601 x 618 km, 97.8° (Epoch: 14 April)

Event Time Altitude Azimuth Distance (km) Brightness Sun altitude
Exits shadow 22:08:30 14° 350° (N) 1,688 ? -35.1°
Drops below altitude 10° 22:09:09 10° 349° (N) 1,956 ? -35.2°
Sets 22:11:20 0° 348° (NNW) 2,866 ? -35.5°
